Regional Weather Roundup
Issued by NWS

Current Version | Previous Version | Graphics & Text | Print | Product List | Glossary On
Versions: 1 2 3 4 5 6 7 8 9 10 11 12 13 14 15 16 17 18 19 20 21 22 23 24 25 26 27 28 29 30 31 32 33 34 35 36 37 38 39 40 41 42 43 44 45 46 47 48 49 50
000
ASHW40 PHFO 111243
RWRHI

WEATHER ROUNDUP FOR HAWAII
NATIONAL WEATHER SERVICE HONOLULU HI
200 AM HST MON DEC 11 2017

THIS IS AN AUTOMATED REPORT THAT HAS NOT BEEN QUALITY CONTROLLED.

NOTE..."FAIR" INDICATES FEW OR NO CLOUDS BELOW 12,000 FEET WITH NO
SIGNIFICANT WEATHER AND/OR OBSTRUCTIONS TO VISIBILITY.

* - THESE SITES REPORT LIMITED FIELDS
# - BUOY DATA PROVIDED BY PACIFIC ISLANDS OCEAN OBSERVING SYSTEM.

HIZ001>004-111300-
KAUAI-NIIHAU-

CITY           SKY/WX    TMP DP  RH WIND       PRES   REMARKS
LIHUE APT      PTCLDY    62  62 100 W8        29.98S
PORT ALLEN*      N/A     66 N/A N/A N5          N/A
POIPU*           N/A     61 N/A N/A N2          N/A
PRINCEVILLE*   NOT AVBL
KOKOLE POINT*  NOT AVBL
MOLOAA DAIRY*    N/A     66  63  88 W3          N/A
WAIMEA HTS*      N/A    N/A N/A N/A N3          N/A
PUU OPAE*        N/A     61  59  94 NE2         N/A
PUU LUA*       NOT AVBL
MAKAHA RIDGE*    N/A     61  61 100 CALM        N/A
$$

HIZ005>011-111300-
OAHU-

CITY           SKY/WX    TMP DP  RH WIND       PRES   REMARKS
HONOLULU       PTCLDY    71  63  75 CALM      29.95F
KALAELOA       MOCLDY    66  64  93 NE5       29.97S
KANEOHE MCB    MOCLDY    71  69  93 SW3       29.92F
WHEELER FIELD  CLOUDY    66  65  99 CALM      29.99R
BELLOWS*         N/A    N/A N/A N/A W3          N/A
KAHUKU*          N/A    N/A N/A N/A E1          N/A
WHEELER*         N/A    N/A N/A N/A N2          N/A
WAIANAE HARBOR   N/A    N/A N/A N/A NE2         N/A
DILLINGHAM*    NOT AVBL
KAHUKU TRN*      N/A     79  77  94 W1          N/A
KAWAILOA*        N/A     66  61  82 CALM        N/A
KII*             N/A     70  68  94 SE3         N/A
MAKUA RANGE*     N/A     66  61  82 NW5         N/A
OAHU FOREST NW   N/A     66  61  82 NW2         N/A
SCHOFIELD BRK*   N/A     63  63 100 CALM        N/A
SCHOFIELD S*   NOT AVBL
WAIANAE VLY*     N/A     66 N/A N/A NW3         N/A
KUAOKALA*        N/A     70  63  78 W1          N/A
HONOULIUULI*   NOT AVBL
MOKUOLOE IS*   NOT AVBL
PALEHUA*         N/A    N/A N/A N/A SW1         N/A
WAIAWA PHB*    NOT AVBL
$$

HIZ012>013-111300-
MOLOKAI-

CITY           SKY/WX    TMP DP  RH WIND       PRES   REMARKS
MOLOKAI AIRPT  PTCLDY    64  64 100 CALM      29.96F
KALAUPAPA      NOT AVBL
MAKAPULAPAI*     N/A     68  64  88 SW5         N/A
MOLOKAI 1*     NOT AVBL
PUU ALII*        N/A     53  53 100 CALM        N/A
$$

HIZ016-111300-
KAHOOLAWE-

CITY           SKY/WX    TMP DP  RH WIND       PRES   REMARKS
KAHOOLAWE*     NOT AVBL
HAKIOAWA*        N/A     69  67  94 MISG      30.37F
HONOKANAIA*    NOT AVBL
KANELOA*         N/A     70  66  88 NE5G10    30.02F
KEALIALALO*    NOT AVBL
LUA MAKIKA*    NOT AVBL
$$

HIZ014>015-111300-
LANAI-

CITY           SKY/WX    TMP DP  RH WIND       PRES   REMARKS
LANAI CITY     FAIR      62  61  96 NE7       30.00F
LANAI 1*       NOT AVBL
$$

HIZ017>028-111300-
MAUI-

CITY           SKY/WX    TMP DP  RH WIND       PRES   REMARKS
KAHULUI        PTCLDY    65  64  97 S6        29.94F
KAPALUA-W MAUI NOT AVBL
HANA AIRPORT     N/A     66  66 100 CALM      29.96F
HANA*            N/A     70 N/A N/A SE3         N/A
HALEAKALA SUMM   N/A     45  -6  12 S7          N/A
MAALAEA BAY*     N/A     64 N/A N/A NE2         N/A
HALEAKALA*     NOT AVBL
KAUPO GAP*     NOT AVBL
KULA 1*          N/A    N/A N/A N/A SE3         N/A
$$

HIZ023>026-111300-
BIG ISLAND OF HAWAII COAST AND LOWER SLOPES-

CITY           SKY/WX    TMP DP  RH WIND       PRES   REMARKS
KAILUA KONA    CLEAR     72  63  73 N6        29.92F
HILO           CLEAR     63  55  75 SW9       29.95F
HONOKAA*         N/A     59 N/A N/A VRB1        N/A
KAWAIHAE MWT*    N/A     73 N/A N/A NE5         N/A
KAWAIHAE*        N/A     72 N/A N/A CALM      29.94S
SOUTH POINT*     N/A     64 N/A N/A NW10        N/A
UPOLU AIRPORT* NOT AVBL
KAMUELA*       CLOUDY    54  52  94 NE7       30.04R
HAKALAU*         N/A    N/A N/A N/A SW5G12      N/A
KALOKO-HONOKO*   N/A    N/A N/A N/A NE5G12    29.92F
PALI 2*          N/A     55  54  94 S3G10       N/A
KEALAKOMO*       N/A    N/A N/A N/A N6G12       N/A
KAUPULEHU*       N/A     64  59  82 SE6         N/A
KAPAPALA*        N/A     56  53  88 VRB3G9      N/A
LOWER KAHUKU*    N/A    N/A N/A N/A N2          N/A
PUHE CS*         N/A     72  59  64 E3          N/A
PUHO CS*         N/A     68  60  74 E3          N/A
PTA KEAMUKU*     N/A     52  48  87 SE8         N/A
WAIKOLOA*        N/A     61  54  77 SE8G14      N/A
$$

HIZ027>028-111300-
BIG ISLAND OF HAWAII INTERIOR AND SUMMMITS-

CITY           SKY/WX    TMP DP  RH WIND       PRES   REMARKS
BRADSHAW FIELD CLOUDY    44  22  42 SE6       30.23F
MK VISITOR CEN   N/A     48   9  20 N8          N/A
MAUNA KEA*       N/A     39 -20   7 SW16        N/A
MAUNA LOA*       N/A     39  -6  14 MISG        N/A
MAUNA LOA 1*   NOT AVBL
PTA KIPUKA*      N/A     45  39  81 NW3         N/A
PTA RANGE 17*    N/A     64  52  63 W8          N/A
PTA WEST*        N/A     48  39  71 SE12G17     N/A
NENE CABIN*      N/A    N/A N/A N/A N6          N/A
AHUMOA*          N/A    N/A N/A N/A E7G13       N/A
PTA PORTABLE*  NOT AVBL
PUU MALI*        N/A    N/A N/A N/A S6          N/A
$$

HIC003-111300-
NORTHWEST ISLANDS-

CITY           SKY/WX    TMP DP  RH WIND       PRES   REMARKS
MIDWAY ISLAND  CLOUDY    66  52  59 N10       30.09F
MIDWAY NOS*      N/A     68 N/A N/A MISG      30.06F
FRENCH FRIGATE NOT AVBL
$$

PHZ110>124-180-111300-
BUOY REPORTS

STATION/POSITION TIME  TEMP    WIND        PRES    WAVE   SWELL
                       AIR SEA DIR/SP/G            HT/PER HT/DIR
                 (UTC) (F)     (DEG/KT/KT) (MB)    (FT/S) (FT/D)
BUOY 51001       1220   72 75  250/ 10/ 12 1014.4
BUOY 51101       1150   72 75  240/ 10/ 14 1015.0F   9/12   8/330
BUOY 51100       NOT AVBL
BUOY 51002       1220   77 78   90/ 12/ 14 1012.6
BUOY 51003       1150   76 78   20/  4/  6 1013.8R  10/13  10/330
BUOY 51004       1220   76 79   90/ 10/ 14 1013.0
WAIMEA BAY#      1202      75                N/A    10/14   8/340
MOKAPU POINT#    1204      77                N/A     9/14   7/350
LANAI#           NOT AVBL
BARBERS PT 2#    NOT AVBL
PAUWELA#         1200      78                N/A    10/13   8/340
HILO#            1227      77                N/A    11/13  10/340
KANEOHE BAY#     NOT AVBL
KANEOHE BAY 2#   NOT AVBL
HANALEI#         1222      76                N/A    12/13  10/340
KAHULUI HARBOR   1218   70 77   CALM  /  2 1013.9
HONOLULU HARBOR  1218   70 78   CALM  /  2 1015.1
PEARL HARBOR#    1200      78                N/A     1/13
KILO NALU        NOT AVBL
HILO HARBOR      1218   66 77  200/  6/  9 1013.9
MOKUOLOE         1136   69 75  250/  2/  3 1014.3F
NAWILIWILI       1218   65     270/  6/  7 1014.7
WHOTS BUOY       NOT AVBL
BUOY 51028       NOT AVBL
$$

......................KEY........................................
  SKY/WX - SKY CONDITIONS/PRESENT WEATHER
  TMP    - TEMPERATURE IN FAHRENHEIT
  DWPT   - DEWPOINT IN FAHRENHEIT
  RH     - RELATIVE HUMIDITY IN PERCENT
  WIND   - DIRECTION AND SPEED /MPH FOR ISLANDS...KTS FOR BUOYS/
  PRES   - MEAN SEA LEVEL PRESSURE IN INCHES OF HG
  VSB    - VISIBILITY IN MILES
  HX     - HEAT INDEX
  WCI    - WIND CHILL INDEX
  VRB    - VARIABLE WIND DIRECTION
  N/A    - NOT AVAILABLE




USA.gov is the U.S. government's official web portal to all federal, state and local government web resources and services.